Wind_Speed
5 6 6 7 7 7 8 8 8 9 9 10 11 11 12 13 14 15 16 18 20 23 25 28 30 32 33 35 36 37 38 39 39 40 41 41 42 43 43 44 43 43 43 42 42 42 40 38 36 33 31 30 28 26 24 24 23 22 19 16 14 9 6 6 2 0 3 5 9 7 3 4 7 9 11 13 15 16 17 20 21 23 25 27 29 29 31 32
7 8 8 9 9 9 10 10 10 10 11 11 11 12 12 13 14 14 16 17 18 20 22 24 27 30 32 33 35 36 37 38 39 40 40 41 42 43 43 44 44 44 44 44 44 44 42 40 38 35 33 32 30 28 25 25 25 25 22 19 16 12 11 7 2 1 4 5 9 6 1 3 5 6 9 10 13 15 15 18 20 22 24 26 28 28 29 31
9 10 11 11 11 12 12 12 12 12 13 13 13 14 14 14 15 15 16 17 18 19 20 22 24 27 29 32 33 35 37 38 39 39 41 41 42 43 44 44 45 45 45 45 45 45 44 42 40 38 35 33 32 30 27 27 28 28 26 22 18 15 13 7 4 6 6 7 7 3 5 3 2 5 8 9 11 13 14 16 18 20 22 25 26 27 28 30
12 12 13 13 14 14 14 15 15 15 15 15 15 16 16 16 17 17 17 18 19 19 20 21 22 24 26 28 31 33 36 37 38 40 41 41 42 43 43 44 45 46 46 47 46 45 45 43 42 40 38 35 34 32 30 30 30 30 28 25 20 17 15 10 7 8 8 10 7 1 5 4 1 4 6 7 9 10 12 14 16 19 21 23 25 25 27 29
14 14 15 15 16 16 17 17 17 18 18 18 18 18 18 19 19 19 19 20 20 21 21 22 23 24 25 26 28 31 34 36 38 40 41 42 42 42 43 44 46 47 47 47 47 46 46 45 44 42 40 37 36 35 33 32 32 31 30 27 22 19 16 12 9 10 12 12 7 6 4 2 4 2 4 5 7 8 10 12 14 17 19 21 23 24 25 28
15 16 16 17 18 18 19 19 20 20 20 20 20 21 21 21 21 22 22 22 22 22 23 23 24 24 25 26 27 29 32 35 38 40 41 41 41 42 42 44 45 47 48 48 48 48 46 46 45 44 42 40 39 38 36 35 33 33 32 30 25 21 18 16 11 13 15 11 5 11 7 2 4 3 3 5 5 7 8 10 11 15 17 19 21 22 24 26
17 18 18 19 19 20 21 21 22 22 22 23 23 23 23 24 24 24 24 24 24 24 25 25 26 26 26 26 27 30 32 34 37 38 39 40 41 41 41 43 45 47 48 48 49 49 48 47 46 45 44 43 41 40 38 36 35 34 33 32 29 24 22 20 17 15 12 7 4 11 8 2 6 7 4 5 4 5 6 8 10 12 15 17 20 21 22 25
19 20 20 21 21 22 23 23 24 24 24 25 25 25 25 26 26 26 26 27 27 27 27 27 27 28 28 28 30 31 32 34 36 36 36 38 40 40 41 42 44 46 47 48 49 50 49 48 47 46 46 45 43 41 40 38 38 37 35 34 32 28 26 25 23 20 12 8 9 14 10 8 9 9 6 5 4 3 4 5 8 10 13 15 18 19 20 24
21 22 22 23 23 24 25 25 26 26 26 27 27 27 27 27 27 28 28 29 29 29 30 29 30 30 30 31 32 34 34 35 36 35 34 36 39 40 41 42 43 45 46 48 49 50 50 49 48 48 48 47 44 43 43 41 40 40 38 35 34 31 30 29 26 23 16 14 14 15 13 12 11 11 8 6 6 3 2 3 5 8 10 13 15 17 18 22
23 24 24 25 25 25 26 26 27 27 28 28 28 29 29 29 28 28 29 29 30 31 32 32 32 32 33 34 34 36 37 36 35 35 33 35 38 40 40 42 43 44 46 47 49 50 50 49 49 49 49 47 46 46 45 44 42 41 40 38 36 34 32 30 28 26 22 19 17 17 17 15 15 14 11 9 8 6 2 1 3 6 9 10 13 15 17 20
24 25 25 26 26 26 26 27 27 27 28 29 29 30 30 30 30 29 29 29 30 31 33 34 35 35 35 36 36 37 38 37 36 36 37 37 39 40 41 42 43 44 46 47 48 49 50 50 50 50 50 49 48 49 47 46 45 43 43 40 38 38 36 34 34 31 28 24 21 19 18 18 17 15 12 11 10 8 5 2 1 4 6 8 11 13 15 18
26 26 26 26 27 27 27 27 27 28 28 29 29 30 30 31 31 31 31 31 31 31 33 34 35 36 37 38 38 39 39 38 39 39 40 40 39 40 41 41 42 44 45 47 48 49 49 50 51 52 51 51 51 51 49 48 47 45 45 43 40 40 40 39 38 35 32 29 25 20 18 17 17 15 12 12 12 11 7 4 3 2 4 6 9 11 13 16
27 27 27 28 28 28 28 28 28 28 28 29 29 30 31 31 31 31 32 32 32 32 33 34 35 37 38 39 40 40 40 40 42 42 42 42 40 41 41 42 42 43 45 46 47 48 49 50 52 53 53 53 54 52 50 49 48 48 46 45 43 42 42 42 41 38 34 31 28 23 19 17 16 14 11 13 14 13 10 7 5 2 2 4 6 8 11 14
29 28 28 29 29 29 29 29 29 29 29 29 30 30 31 31 32 32 32 32 33 33 34 35 36 37 38 39 40 41 41 42 43 44 44 44 42 42 43 43 43 43 44 45 46 48 49 51 53 55 55 55 55 53 51 51 50 50 48 47 45 44 43 44 43 41 37 33 30 28 23 19 17 14 13 15 16 15 12 9 8 5 2 2 4 6 9 12
30 30 30 30 31 31 31 31 30 30 30 30 30 31 31 32 32 32 33 33 33 34 35 36 37 38 39 40 41 41 42 43 44 45 46 46 45 44 45 45 45 45 45 45 46 48 49 51 54 56 56 56 55 54 53 52 52 52 51 49 48 46 45 45 45 43 40 36 33 30 26 22 18 16 16 19 18 17 15 12 10 7 4 2 3 4 6 9
32 32 33 32 32 32 32 32 32 32 31 31 31 31 32 32 33 33 33 33 34 34 35 36 37 38 39 40 42 42 43 44 45 46 47 48 47 46 47 48 47 47 46 47 47 48 49 51 55 57 57 55 54 54 54 55 54 53 52 51 50 49 47 47 46 45 42 38 34 31 28 25 22 20 20 21 21 20 17 13 11 9 6 4 3 2 3 7
34 34 34 35 35 34 34 34 34 33 33 33 33 33 33 33 33 34 34 34 34 35 35 36 37 39 40 41 42 43 44 45 46 47 48 49 49 48 48 49 49 49 48 48 48 48 49 51 55 57 56 55 54 55 56 57 56 55 54 53 52 51 49 48 47 46 43 39 35 32 30 28 25 24 23 23 23 22 19 15 13 11 9 6 4 2 1 4
35 36 36 36 36 36 36 36 35 35 35 35 34 34 34 34 34 34 34 34 35 35 35 36 37 39 39 40 42 43 44 45 46 47 48 49 50 49 49 50 51 51 51 50 50 50 50 52 55 56 55 55 55 55 58 59 58 57 57 55 54 53 51 49 48 47 45 41 36 32 30 29 27 26 25 26 24 22 21 17 14 14 12 9 7 5 3 2
37 37 37 37 38 38 37 37 37 36 36 36 36 36 35 35 35 35 35 35 35 35 35 36 37 38 39 40 41 42 43 44 44 46 47 48 50 50 50 51 52 53 53 53 53 52 51 52 54 54 54 55 57 59 60 60 59 59 59 58 55 54 53 51 50 49 47 44 38 32 30 29 29 28 27 27 26 23 23 19 15 16 14 12 9 7 6 3
38 38 39 39 39 39 39 38 38 38 38 37 37 37 37 36 35 35 35 35 35 35 35 36 37 38 39 39 40 41 42 42 43 44 45 46 47 48 49 50 52 54 55 55 55 54 53 53 54 54 55 57 60 61 60 60 61 62 61 59 57 55 54 53 52 50 49 46 41 36 31 28 28 29 28 28 27 25 25 21 17 18 17 14 12 9 8 6
40 40 41 41 41 41 40 40 40 39 39 38 38 38 37 37 36 35 35 34 35 35 35 36 36 38 39 40 40 41 41 42 42 42 43 44 45 47 48 49 51 53 55 56 56 55 55 55 55 56 56 58 61 62 61 61 63 63 62 61 59 58 56 55 53 52 50 48 45 39 32 30 32 32 31 31 29 26 25 22 19 19 19 17 14 11 10 8
42 43 43 43 43 43 42 42 41 41 40 39 39 38 38 37 36 35 34 34 34 34 35 35 36 37 38 39 40 41 41 41 42 43 43 45 46 48 49 51 52 53 55 56 56 57 58 58 58 58 58 60 62 62 62 63 64 63 62 62 61 60 58 57 54 52 52 51 48 42 35 34 35 34 32 33 32 29 26 23 20 20 20 19 17 14 12 10
44 45 45 45 45 44 44 43 43 42 41 40 39 38 37 36 35 34 33 33 32 33 34 35 36 37 38 39 40 42 43 42 43 44 45 47 49 51 53 55 56 57 57 58 58 58 60 61 62 62 62 63 64 63 63 65 65 63 63 63 62 61 60 58 56 54 54 53 51 46 38 34 34 35 34 34 33 32 29 25 22 21 21 20 19 17 15 12
47 47 47 47 46 46 45 45 44 43 41 40 38 37 36 34 34 33 32 32 32 31 32 34 35 36 38 39 40 42 44 44 45 46 48 51 53 55 57 60 61 62 63 62 62 62 63 63 65 65 65 65 65 64 64 65 66 64 64 64 63 63 62 60 59 57 56 54 52 48 41 36 35 34 34 33 33 35 33 28 24 22 21 21 21 19 17 14
48 49 48 48 48 47 46 45 44 42 40 38 37 35 34 32 31 31 30 30 31 31 31 33 34 36 38 40 41 43 45 46 48 49 52 54 56 57 59 61 63 65 67 67 67 67 66 66 66 68 68 68 67 65 65 67 67 66 65 64 64 66 65 63 61 59 58 56 54 50 45 42 38 34 34 35 34 35 35 31 27 24 22 21 22 21 19 16
50 50 50 49 49 48 47 45 43 41 38 36 34 32 31 30 28 28 28 29 30 31 30 32 34 35 37 39 41 44 46 48 50 52 54 56 57 57 58 60 62 65 68 69 71 72 71 70 70 69 70 71 70 68 67 68 67 65 65 65 66 68 67 65 64 62 61 59 56 54 49 46 44 39 38 38 35 34 34 32 29 27 24 22 23 24 22 19
52 52 51 50 49 47 45 43 41 38 36 33 31 29 27 26 25 25 26 27 29 30 30 30 33 35 37 39 41 44 47 49 50 52 54 55 55 56 57 58 61 64 68 71 75 77 77 76 74 72 72 72 72 70 68 67 67 66 67 67 67 69 69 67 66 64 63 61 59 57 52 50 47 43 42 40 36 35 34 33 31 28 26 23 23 26 24 21
54 53 51 50 48 46 43 41 39 36 33 30 28 26 24 23 23 24 25 25 27 29 29 29 32 34 37 39 41 44 47 48 50 51 53 53 54 55 56 58 60 63 68 74 79 81 82 81 79 76 75 73 73 72 69 67 67 68 68 68 68 70 71 70 68 66 64 63 62 60 57 55 49 45 46 42 38 37 36 34 33 30 27 24 23 27 26 22
55 53 51 48 46 44 42 39 36 33 30 27 25 23 22 22 23 24 24 24 26 28 28 29 31 34 36 39 41 44 46 47 48 49 50 50 51 52 54 55 56 59 64 72 80 85 87 85 81 79 77 75 75 75 72 69 69 70 69 69 69 71 72 71 69 67 66 65 64 63 62 61 54 46 48 46 40 40 38 36 34 32 30 26 25 27 28 25
54 52 49 47 45 42 39 36 32 29 27 24 22 21 21 22 23 24 23 24 25 27 28 28 30 34 36 39 41 43 45 45 45 45 45 46 46 47 48 49 50 52 58 66 76 84 88 87 84 83 81 79 78 77 75 73 72 72 70 70 72 74 74 73 71 68 68 67 65 65 66 66 59 50 49 49 44 42 40 37 36 35 34 31 28 28 28 26
54 52 49 46 43 40 36 32 29 26 24 22 21 20 20 22 23 24 23 24 24 25 27 29 31 34 37 38 40 42 43 43 42 40 40 40 40 41 42 43 44 47 53 59 67 77 86 89 88 86 84 83 81 78 76 75 74 72 71 71 73 75 74 73 71 69 69 69 68 68 68 67 63 55 53 53 49 44 40 38 37 37 35 34 33 31 29 26
53 50 46 43 39 35 31 28 25 23 21 20 20 20 21 22 23 24 24 24 25 26 28 30 32 34 36 38 39 41 41 41 40 37 35 35 36 37 37 38 40 44 49 54 59 69 80 87 89 87 86 86 84 81 77 77 76 73 72 72 73 74 72 72 72 70 70 72 71 70 69 68 66 62 57 55 53 47 42 39 39 39 38 36 36 36 34 30
50 46 42 38 35 31 27 25 23 21 20 20 20 20 21 22 22 24 25 24 27 28 29 31 33 35 37 39 39 40 39 38 38 35 32 33 33 33 33 35 37 41 45 49 54 63 73 84 89 91 91 90 87 84 81 80 79 76 74 74 74 74 72 72 73 72 73 75 74 71 70 69 68 66 61 57 53 48 44 42 40 40 40 39 38 37 36 34
45 41 37 33 30 27 24 22 20 19 19 19 20 20 22 23 23 24 26 26 28 31 32 34 36 37 39 40 40 39 38 37 36 34 32 31 30 29 30 31 34 37 41 44 49 57 66 78 88 93 94 93 90 88 86 84 82 79 77 77 76 75 74 74 74 75 75 76 75 72 70 70 69 69 66 62 56 50 47 45 42 42 41 39 38 37 37 36
40 37 33 29 26 23 22 20 18 18 19 19 20 21 22 24 24 25 27 28 30 33 35 37 38 39 40 40 39 37 36 36 35 33 31 29 28 27 27 28 31 34 37 41 46 52 58 69 82 91 94 93 91 90 89 86 84 82 81 79 77 77 76 75 76 76 76 76 76 74 72 71 71 71 68 66 62 55 50 48 45 44 42 40 39 38 38 39
37 34 30 26 23 22 20 19 17 17 18 19 20 21 23 25 27 28 29 31 32 35 37 39 41 41 40 37 34 35 36 36 35 33 31 29 26 25 25 26 27 30 33 38 43 48 54 63 75 88 94 95 93 92 89 88 86 85 84 82 80 79 79 78 77 76 76 77 78 77 75 73 74 73 70 68 65 59 55 52 49 44 42 43 42 41 41 41
35 31 27 24 22 20 19 18 17 17 18 18 19 21 24 26 28 30 32 34 35 37 39 40 42 42 39 33 30 32 34 35 36 34 31 29 26 23 23 24 25 26 31 35 40 44 51 58 69 82 92 95 95 93 91 91 89 88 86 84 82 81 80 79 78 76 77 80 81 80 78 77 75 74 72 69 66 62 59 57 53 45 41 44 45 44 45 44
33 29 26 23 21 20 18 17 17 17 18 18 19 22 25 28 30 32 34 36 37 38 40 41 42 41 37 30 28 31 33 35 35 33 31 28 25 22 23 24 23 24 28 32 37 43 49 55 63 76 88 94 95 94 93 93 92 90 87 85 83 81 79 78 78 78 80 82 83 82 80 78 77 75 73 71 67 62 61 60 56 49 43 45 48 47 46 46
31 28 25 22 20 19 18 17 17 17 18 19 21 22 24 27 30 32 34 37 38 38 40 40 40 40 34 27 26 30 32 34 36 34 31 29 25 23 24 24 23 22 24 27 33 40 46 52 59 69 81 91 95 95 94 93 92 90 87 85 84 81 78 78 79 79 81 83 84 84 81 79 79 77 75 73 67 62 61 59 57 53 47 45 48 49 47 47
29 26 24 22 20 19 18 17 18 19 20 21 22 23 24 26 30 32 34 37 39 39 40 39 38 37 32 25 26 28 30 33 35 35 32 30 27 24 24 24 23 21 21 24 29 35 42 49 56 64 75 86 93 95 95 94 93 90 89 88 86 83 81 80 81 81 81 83 85 86 84 82 82 79 77 74 68 63 62 60 57 55 50 44 45 49 48 47
28 25 23 22 21 20 19 19 20 21 22 22 22 24 26 26 30 32 33 36 38 38 39 39 36 34 30 26 27 28 29 32 34 35 34 31 29 24 23 24 23 21 21 23 27 32 38 45 53 62 70 80 89 95 97 97 95 92 91 90 88 87 85 84 83 83 83 84 85 86 85 84 84 82 78 74 71 67 64 61 59 57 52 45 44 48 48 47
27 24 22 22 21 21 21 22 23 23 23 24 23 25 26 27 30 32 32 35 38 38 38 38 35 32 29 27 28 29 30 32 33 35 35 33 30 25 22 23 23 23 24 26 27 31 36 42 50 58 66 74 84 93 97 98 97 95 94 93 91 90 88 86 86 86 85 85 87 88 87 86 85 84 80 76 74 72 66 63 62 60 53 48 46 47 47 46
27 25 23 23 23 23 23 24 24 25 25 25 25 26 28 28 30 33 33 35 38 38 38 38 35 32 29 27 29 31 32 33 33 35 35 34 32 27 22 22 22 23 26 27 27 29 34 40 46 54 62 69 79 90 96 98 98 98 98 96 96 95 92 88 87 87 87 87 89 90 89 87 86 85 82 77 75 74 69 64 63 62 55 49 47 48 46 44
27 26 25 25 26 25 25 25 26 26 26 26 26 28 30 30 31 33 33 35 38 39 39 38 36 34 31 29 31 33 34 34 35 35 36 35 34 30 23 21 22 23 24 27 28 28 31 38 44 51 58 65 73 84 93 97 99 100 100 100 99 97 92 88 87 87 87 88 89 89 88 88 87 85 82 76 74 75 73 68 66 64 58 50 46 46 45 42
27 27 27 29 29 28 28 28 29 28 28 28 28 29 31 32 33 33 34 35 38 38 39 40 38 37 33 31 32 33 34 35 36 35 36 36 35 32 26 21 22 22 22 25 27 26 29 35 43 49 54 61 69 79 88 95 100 102 102 102 100 96 92 90 90 88 86 85 86 86 86 87 86 84 81 77 76 78 79 77 73 68 62 54 47 44 44 42
29 29 31 32 31 31 31 31 32 31 30 31 31 31 32 33 34 34 34 36 39 39 39 41 40 39 36 33 33 34 36 37 37 36 36 36 36 34 29 23 21 21 21 23 26 27 29 33 39 46 51 57 66 75 84 91 99 103 103 102 100 96 94 94 91 88 85 83 83 84 84 85 84 83 82 81 81 82 83 84 80 73 67 61 52 46 45 45
32 31 34 35 33 33 34 35 35 34 34 34 34 35 35 34 35 36 36 38 40 40 40 41 41 40 38 35 33 34 36 38 39 38 36 36 37 36 33 27 22 20 20 22 26 29 32 34 37 42 48 53 60 70 80 88 95 102 104 103 101 98 96 95 91 87 85 84 84 84 83 84 84 83 83 83 84 82 82 87 86 77 70 66 57 51 48 49
37 35 37 37 36 36 37 38 38 37 37 37 38 39 39 37 36 37 38 40 40 40 40 41 42 41 39 37 35 33 34 37 39 39 37 36 37 38 36 31 24 20 19 22 25 29 33 36 37 40 46 52 57 65 75 84 92 100 104 103 101 99 97 95 92 88 86 84 84 84 83 84 84 84 84 85 86 85 84 87 88 80 73 69 62 58 57 54
40 39 40 41 40 39 39 40 40 39 39 39 40 40 41 39 37 37 39 39 40 40 40 41 42 42 41 39 36 33 34 36 37 38 38 37 37 38 38 34 27 21 19 21 24 28 32 35 38 40 44 50 56 62 71 81 90 98 102 103 102 99 97 95 93 89 87 86 85 84 84 84 83 83 85 87 88 89 87 87 88 84 79 75 67 62 62 60
39 39 40 42 43 43 43 43 42 42 42 41 41 42 43 42 39 39 38 38 39 40 40 42 42 43 42 39 34 33 34 35 37 38 37 37 37 38 38 36 30 23 21 21 23 26 29 35 40 41 42 48 55 62 70 79 88 95 100 102 102 100 98 96 94 91 89 88 86 85 85 85 84 84 85 87 89 90 90 89 88 87 84 82 75 67 62 60
38 38 39 41 42 42 42 43 44 44 44 44 44 43 44 44 42 40 39 38 40 40 40 43 43 42 43 40 33 33 34 34 36 37 37 37 37 38 39 37 32 25 22 22 22 24 28 33 39 43 44 47 54 61 69 76 85 92 98 101 102 101 100 98 95 92 91 89 87 87 86 85 86 85 85 86 88 90 91 90 89 89 86 85 83 78 70 61
38 39 40 41 42 41 40 41 43 43 44 44 44 43 43 44 43 41 41 40 41 40 40 43 43 42 43 39 32 32 34 34 35 36 36 37 37 38 39 38 34 26 22 22 22 23 26 30 36 43 47 48 52 59 66 72 80 87 94 99 101 101 100 99 97 94 92 90 88 87 87 86 87 88 87 87 88 90 91 91 90 90 89 87 87 86 82 71
Wind_Direction
282 281 279 277 276 276 276 274 273 271 269 268 267 265 263 260 258 255 252 249 247 245 244 243 242 241 241 240 239 238 237 236 235 234 232 231 230 230 230 231 231 232 232 231 232 232 231 231 230 228 226 227 227 224 221 222 225 225 223 224 221 210 213 232 206 34 318 320 328 348 39 2 5 8 5 24 33 30 25 25 28 29 32 35 39 41 39 38
282 282 281 280 279 277 276 276 274 273 271 269 268 266 265 263 260 259 257 254 251 248 247 245 244 243 242 241 241 240 239 238 236 235 233 232 231 230 230 230 231 231 232 231 232 232 231 230 230 228 226 226 227 226 222 221 224 224 223 224 222 216 217 223 184 225 274 289 312 323 69 0 7 13 359 15 35 35 26 25 29 28 30 33 37 42 41 40
284 283 283 283 282 280 278 276 274 273 272 271 269 268 266 264 262 260 259 257 255 252 249 248 246 245 244 243 242 242 241 239 238 237 234 233 232 231 230 230 230 231 231 232 232 232 231 230 230 229 226 225 226 226 223 221 222 223 223 223 222 220 219 223 238 256 261 259 296 330 146 149 0 7 354 4 31 39 29 25 28 28 29 30 35 41 43 42
288 286 286 285 285 283 281 279 277 275 273 271 270 269 268 266 264 261 259 258 256 255 252 250 249 247 246 245 244 243 243 241 239 238 236 234 233 231 231 231 231 230 231 231 231 232 231 230 230 229 227 225 225 225 224 223 222 223 222 222 220 220 217 208 233 272 269 256 278 307 145 162 270 353 347 354 27 41 33 26 27 29 28 28 32 39 45 44
290 290 289 288 287 286 284 283 281 279 276 274 272 271 270 268 267 264 261 259 257 256 254 252 251 249 248 247 245 245 244 242 240 239 237 235 234 232 231 231 231 230 230 230 231 231 231 231 230 229 228 225 225 225 224 224 224 223 221 220 218 216 212 196 220 262 251 257 271 220 226 270 239 318 334 332 20 43 38 28 25 29 28 27 29 37 46 46
293 292 291 290 289 288 286 284 282 280 278 277 275 273 272 270 268 266 264 261 258 256 254 252 251 250 249 248 247 247 245 242 240 239 239 237 236 234 233 232 232 232 231 230 230 230 230 230 230 229 228 226 225 225 223 223 224 224 220 219 218 214 207 197 211 242 240 261 269 202 219 315 217 241 299 300 4 43 42 30 24 28 28 27 27 33 45 48
296 295 294 293 292 290 289 286 284 282 280 279 277 275 274 272 270 268 266 264 261 258 254 252 250 249 248 247 247 247 246 243 240 239 240 239 238 237 235 234 233 233 233 231 230 229 229 229 229 229 228 227 225 225 223 222 224 225 222 219 218 213 208 206 213 229 232 246 221 177 189 196 199 225 257 282 339 36 47 33 23 26 27 27 27 31 44 49
298 297 296 295 294 293 292 290 288 286 284 282 280 277 276 274 272 270 268 266 263 261 258 254 251 249 247 246 246 247 247 245 241 239 240 240 240 238 237 236 235 234 234 233 232 230 229 228 228 229 229 227 225 225 224 222 223 223 223 220 219 214 211 215 222 230 223 190 155 144 176 226 220 224 239 268 307 16 48 37 23 23 25 26 28 29 41 50
299 298 297 296 295 294 292 292 291 289 288 286 284 282 280 277 274 272 269 267 265 262 260 257 254 250 247 246 246 246 247 246 244 241 241 241 240 239 237 236 235 235 234 233 232 231 230 228 227 228 228 227 225 225 224 222 222 222 222 219 218 217 214 218 224 228 216 187 172 166 192 220 220 229 239 252 276 312 21 44 26 23 23 24 30 31 40 50
299 299 298 297 295 294 292 291 290 289 288 287 286 285 283 281 278 275 272 269 266 263 261 258 256 253 249 248 247 247 247 247 247 245 242 240 240 238 236 235 235 235 234 233 232 231 230 228 227 227 228 226 225 226 224 222 222 222 221 218 216 216 216 217 219 219 213 203 204 206 206 204 207 225 237 246 262 275 280 70 37 25 22 21 29 33 40 49
299 299 298 297 296 294 292 291 289 287 286 285 285 284 283 283 281 279 276 272 268 264 262 259 257 254 251 250 248 248 248 247 246 246 244 240 238 238 235 234 234 234 234 234 233 232 231 229 228 227 227 226 225 225 224 222 222 222 221 218 215 215 215 216 218 217 217 217 220 221 215 207 210 219 227 241 253 256 249 171 97 33 28 19 28 37 42 49
299 298 298 297 296 295 293 291 289 287 285 283 283 282 282 282 281 280 278 276 272 267 263 260 257 255 253 251 249 249 249 247 245 244 244 243 240 240 238 235 234 234 235 234 234 232 231 230 228 227 225 225 225 225 224 222 222 222 221 219 216 215 216 218 221 220 220 222 226 227 219 213 214 214 219 238 247 245 229 195 180 69 39 20 25 38 47 50
299 299 298 297 296 295 294 293 291 288 286 284 282 282 282 281 281 280 279 277 274 270 266 262 258 256 254 252 251 249 248 247 246 243 243 244 242 242 241 238 236 234 234 234 234 233 232 231 229 227 224 224 225 224 224 223 222 222 221 219 216 215 216 219 223 222 219 220 223 225 224 223 222 217 219 236 242 236 223 203 192 164 79 34 22 36 51 51
299 299 299 298 297 296 295 294 292 291 289 286 284 283 282 282 282 281 280 278 275 272 268 264 260 257 255 253 252 251 249 248 247 245 244 244 243 242 242 241 238 235 234 234 234 233 232 231 230 228 225 224 224 223 223 223 222 222 221 220 218 216 215 217 222 223 220 219 220 223 227 230 229 221 222 235 237 230 222 212 198 191 166 87 30 30 51 54
300 299 299 299 298 297 296 295 294 293 291 289 287 286 284 284 283 283 282 279 277 273 269 266 262 259 256 254 253 251 250 249 248 247 246 244 242 240 241 241 239 237 234 233 232 232 232 232 231 229 226 224 224 223 223 222 222 222 221 220 219 218 216 217 220 222 222 221 220 222 225 226 225 215 220 232 233 228 224 217 205 196 191 145 71 33 47 55
300 300 300 299 299 298 297 296 295 294 293 292 290 289 287 286 285 285 283 281 279 275 270 266 263 260 257 255 253 251 250 249 248 248 248 247 244 241 240 240 240 238 236 234 232 232 232 232 232 231 227 225 224 224 223 222 222 222 221 220 219 218 217 216 219 222 223 222 221 222 222 222 220 211 216 227 230 231 226 215 208 200 196 178 127 65 44 54
301 300 300 299 299 298 298 297 297 296 295 294 292 291 290 288 287 286 285 283 280 276 272 268 264 260 258 255 254 252 251 250 249 248 248 248 247 243 242 241 241 239 238 236 234 232 231 232 233 232 229 226 224 224 223 222 221 221 221 220 219 218 217 216 218 221 223 223 223 223 221 220 218 212 215 220 225 233 227 210 205 203 199 188 165 141 75 49
301 300 300 299 299 298 298 298 298 297 297 295 294 293 291 290 289 288 286 284 281 278 274 269 265 261 258 256 254 253 252 251 250 249 248 249 249 246 244 243 242 240 239 237 234 232 231 231 233 232 230 227 225 224 224 222 221 220 221 220 219 218 217 216 217 219 221 222 223 223 219 217 215 211 214 216 220 231 227 209 205 206 202 196 184 172 153 67
301 300 300 299 299 298 298 298 299 298 298 297 295 294 292 291 290 289 286 284 282 278 274 270 267 263 260 257 255 254 253 252 251 251 250 249 250 249 246 244 243 243 240 237 235 233 232 232 233 232 231 228 225 224 223 221 220 220 220 220 219 218 217 216 216 217 219 220 220 218 214 214 214 212 215 215 217 229 225 211 210 209 204 200 193 185 167 131
301 301 300 300 299 299 299 299 299 299 298 298 297 295 294 292 291 289 287 284 281 277 273 270 267 264 262 259 257 256 256 255 254 253 252 251 251 250 248 245 244 243 242 239 236 234 232 232 232 232 231 229 227 225 222 220 220 220 219 219 218 218 217 216 216 216 217 218 217 215 212 213 218 216 215 215 217 226 222 212 215 210 203 200 197 193 174 155
302 301 301 300 300 300 300 301 300 300 299 299 297 296 295 293 291 289 286 283 280 277 273 270 266 263 262 261 259 257 257 256 256 256 255 254 254 253 251 248 245 243 242 241 237 235 233 231 231 231 230 230 229 225 222 221 220 219 219 218 217 217 217 216 216 215 216 216 215 215 212 212 218 217 214 215 216 219 216 212 216 210 203 201 197 195 181 163
302 302 301 301 301 301 302 302 302 301 300 300 298 297 295 293 291 288 285 282 279 276 273 270 266 263 261 260 260 260 259 258 257 257 257 257 256 256 255 253 250 245 242 241 239 236 233 231 230 230 229 230 229 226 223 222 220 218 219 219 218 217 217 216 215 215 216 215 214 215 213 211 217 216 213 216 216 214 211 211 216 214 208 203 198 196 188 172
302 302 302 302 302 303 303 303 303 302 302 301 299 297 295 293 291 288 285 282 278 275 271 268 266 263 261 259 259 260 260 260 259 259 259 259 258 258 257 256 254 250 245 241 238 236 234 231 229 228 227 228 228 226 224 222 220 217 218 219 218 217 216 215 214 214 215 215 214 214 212 211 216 215 213 216 216 215 213 213 217 219 213 205 200 197 193 184
303 303 303 303 303 304 304 304 304 303 302 301 299 297 295 292 290 287 284 282 278 275 271 268 264 263 262 261 260 260 261 262 262 262 262 262 261 259 258 256 253 251 248 243 239 236 234 231 229 227 226 227 227 225 224 223 220 217 216 217 218 217 216 215 214 213 214 214 213 212 210 209 210 209 212 215 216 217 217 216 214 215 213 209 206 200 195 192
304 304 304 304 305 305 306 305 305 304 302 301 298 296 294 291 288 286 284 281 278 275 271 268 265 263 262 263 263 264 264 265 265 266 266 266 264 262 259 255 252 249 247 244 241 237 233 231 230 227 226 226 227 225 224 223 220 216 215 216 217 217 215 213 213 213 213 212 211 209 208 208 203 198 205 212 214 217 219 215 209 209 213 217 216 207 198 196
305 305 305 305 306 307 307 306 305 304 302 300 298 295 292 290 287 285 283 281 279 276 273 271 269 267 264 264 265 266 268 269 269 270 270 269 267 264 260 256 251 247 245 242 240 238 234 231 230 228 226 225 225 224 223 223 220 216 215 215 216 217 215 213 212 212 212 211 209 206 206 209 204 196 200 208 211 213 216 213 208 210 214 218 220 213 203 198
306 305 306 306 307 308 307 306 305 304 301 299 296 293 290 287 284 283 282 281 281 279 277 277 276 275 273 271 271 272 273 274 275 275 275 272 270 266 262 257 252 247 243 239 237 235 233 230 228 226 226 225 224 224 223 223 222 218 214 214 216 216 216 213 212 211 211 211 209 206 206 208 206 199 198 204 208 209 211 211 209 213 214 213 216 215 207 199
306 306 307 308 308 308 307 306 305 303 300 297 294 291 287 284 281 280 281 281 281 280 280 280 280 280 279 278 278 279 279 280 281 280 277 275 271 268 263 259 254 248 242 236 232 231 230 229 226 224 224 223 223 223 222 222 223 219 215 213 215 216 215 214 212 210 210 211 209 206 207 208 206 201 197 201 206 206 207 209 210 213 213 210 214 215 207 200
306 307 308 309 309 309 308 306 304 301 298 295 292 288 284 282 281 281 281 281 282 282 282 282 283 284 284 285 286 286 286 286 285 282 279 275 272 269 266 262 256 248 240 233 229 227 226 226 225 223 222 222 222 220 219 220 222 220 216 213 214 216 215 213 212 210 209 211 210 208 208 209 208 204 200 201 205 205 205 207 210 212 212 210 213 214 208 202
307 308 309 309 309 308 307 306 303 299 296 293 289 285 283 282 282 282 283 284 285 287 289 289 292 294 294 294 294 294 293 292 289 285 281 277 274 272 270 264 256 246 239 233 227 224 223 222 222 222 221 221 221 220 218 218 220 219 216 214 214 215 215 213 211 210 209 210 210 209 210 210 209 207 204 204 205 205 203 205 209 211 211 210 210 211 211 207
307 308 309 309 309 308 306 304 300 297 294 290 285 282 282 283 284 285 286 287 287 290 295 297 300 303 303 304 304 303 302 299 295 291 287 283 280 277 272 264 255 245 238 233 227 223 221 220 219 219 219 219 220 219 217 217 219 218 216 215 215 215 214 213 211 210 210 211 210 210 211 212 210 207 206 206 206 203 200 201 208 211 211 210 209 210 209 206
308 308 309 309 308 307 304 301 298 296 291 286 283 283 283 284 287 289 291 294 296 297 301 304 306 308 309 310 311 311 310 306 303 299 295 291 288 282 273 264 254 244 237 232 227 222 219 218 218 217 218 218 218 218 216 217 218 218 216 216 216 215 214 213 211 209 210 212 211 210 211 213 211 208 206 206 206 203 200 200 206 212 213 211 210 211 209 204
308 309 309 309 307 305 302 299 297 293 288 284 284 285 286 288 292 295 297 300 303 304 306 309 311 314 315 315 316 316 314 312 310 307 303 300 295 286 275 265 254 244 236 230 226 222 218 215 215 216 216 217 217 216 216 216 215 216 216 216 215 214 213 212 210 209 210 212 212 210 211 214 212 209 208 207 206 204 203 202 205 211 215 214 211 212 212 208
308 309 309 307 305 302 299 297 295 290 287 286 286 288 291 293 296 300 303 305 308 310 312 314 316 320 321 320 320 319 317 317 317 315 313 309 300 288 276 265 254 244 236 230 226 222 218 215 213 214 215 215 215 215 215 214 213 213 215 216 215 213 212 211 210 209 211 211 211 210 212 215 213 210 211 211 209 207 205 203 204 208 212 214 213 211 212 212
308 309 308 306 303 300 297 295 292 289 288 288 290 292 296 300 301 305 308 310 315 317 319 321 322 325 327 324 322 321 320 322 323 322 321 315 304 290 278 265 254 244 236 230 225 221 217 215 213 213 215 215 215 215 215 214 212 212 213 215 215 212 211 211 210 210 210 211 211 210 211 214 214 211 213 215 214 211 208 203 201 203 206 212 214 213 213 214
308 308 307 304 301 298 295 293 290 289 289 290 295 299 302 305 307 310 312 315 319 322 323 325 326 328 329 326 322 323 325 327 329 328 326 319 307 292 279 268 256 244 235 229 225 220 216 213 212 212 213 214 214 215 215 214 213 212 212 214 214 213 211 210 209 209 210 210 210 210 212 214 214 212 212 215 216 214 211 205 201 201 204 211 215 215 216 217
306 307 305 302 298 295 293 293 289 288 289 293 300 304 306 308 311 315 317 319 323 325 326 327 328 330 330 326 324 327 329 332 334 333 330 323 311 294 280 270 259 245 235 229 224 220 216 213 211 211 212 213 214 214 214 215 214 212 212 213 214 213 211 210 208 208 210 210 209 209 211 213 213 213 212 213 215 215 213 210 205 202 204 211 216 217 218 221
303 304 303 299 295 292 292 290 288 287 290 296 302 307 310 313 315 320 322 322 324 327 328 329 330 331 330 327 328 332 334 336 337 336 334 327 313 294 279 271 263 250 239 230 224 220 215 212 211 211 212 213 213 214 214 215 215 213 212 212 214 214 212 211 209 208 210 210 208 208 211 212 212 213 211 211 212 213 214 214 209 205 204 210 217 219 220 223
301 302 299 295 291 289 289 287 286 288 293 298 303 307 314 317 318 322 324 323 325 328 329 330 331 332 330 328 331 336 339 340 340 338 337 332 317 296 282 274 267 256 244 234 227 222 217 212 209 209 211 212 212 213 214 216 216 214 213 213 214 214 213 212 211 210 210 211 209 207 209 212 212 211 211 209 208 210 213 214 210 205 202 206 215 220 220 222
300 300 295 290 287 286 286 285 286 290 294 299 305 309 315 319 319 322 325 324 325 328 329 330 332 332 330 329 333 337 342 344 343 341 340 336 323 304 288 278 270 262 251 238 229 224 219 214 210 209 210 211 211 211 213 215 216 216 215 214 214 214 213 213 213 212 211 211 209 207 208 211 211 211 210 207 205 207 211 212 208 203 199 200 211 219 219 221
301 298 291 286 285 285 285 285 288 292 295 301 307 311 314 318 319 322 326 325 325 328 330 331 333 334 331 331 334 338 342 345 345 344 342 339 331 314 292 279 270 263 254 242 231 222 217 215 211 209 210 210 210 210 211 213 214 216 217 216 215 214 214 213 213 213 212 211 210 208 208 210 211 210 210 206 202 204 208 207 204 201 198 196 206 216 218 220
302 297 290 285 283 283 284 286 290 294 298 302 307 309 312 317 318 320 325 325 325 329 331 330 333 334 331 331 335 338 342 345 346 345 343 341 337 323 298 281 272 262 254 246 235 224 216 214 212 211 211 210 209 209 211 212 213 214 216 216 216 216 215 214 214 214 213 211 209 209 208 210 211 210 209 205 202 203 205 203 200 200 198 196 204 214 216 219
303 298 292 287 283 283 284 288 292 296 299 302 305 306 309 314 317 319 324 325 324 328 330 329 331 333 332 333 336 338 340 343 345 345 344 343 340 332 308 285 274 266 258 252 243 230 220 215 213 212 211 210 209 209 210 211 212 213 215 216 217 217 216 215 215 215 214 212 210 208 208 208 210 210 210 206 202 202 204 203 201 201 198 195 203 214 217 219
302 298 293 288 285 285 287 290 293 296 298 300 302 304 307 312 316 318 322 322 322 326 328 329 330 332 333 334 336 337 338 341 343 343 344 344 342 338 322 292 277 271 263 257 250 239 227 218 214 214 213 211 210 210 209 210 211 213 215 215 216 216 215 215 216 216 216 214 211 209 208 208 209 209 210 208 204 203 205 207 206 204 201 197 202 212 218 222
298 296 291 286 287 289 291 292 292 294 295 295 298 302 305 310 313 316 320 319 318 322 325 327 329 330 331 332 333 334 334 337 340 341 342 343 343 342 332 303 283 277 269 259 251 244 234 224 217 214 214 212 210 210 209 210 211 212 214 216 216 215 214 215 216 216 216 216 213 210 209 210 209 209 208 208 206 206 209 211 209 206 205 201 200 207 215 220
293 292 288 286 289 291 291 290 289 291 291 292 295 299 301 306 310 313 316 315 314 317 321 325 327 327 328 329 329 330 331 333 337 338 340 342 342 343 338 317 292 282 276 262 248 239 232 228 222 216 214 214 212 210 209 210 212 212 213 216 216 215 214 216 216 215 215 216 215 212 211 211 210 209 208 208 208 209 211 213 210 207 208 206 201 202 209 214
288 287 287 288 290 289 288 287 287 289 290 291 293 295 298 303 306 309 311 311 310 312 316 321 324 325 326 325 324 327 328 330 333 335 337 341 342 343 341 329 306 288 279 266 252 239 229 225 223 218 215 214 214 213 210 210 212 213 213 215 216 215 215 216 215 214 214 215 215 213 212 211 211 210 210 210 210 211 212 213 211 208 210 211 207 202 205 210
285 284 285 286 287 286 286 287 287 289 289 289 291 292 295 299 302 305 307 308 307 308 312 317 320 323 325 322 320 323 325 327 329 331 333 338 341 342 341 334 317 296 283 271 256 243 232 225 222 219 215 213 213 213 212 210 212 213 214 214 215 215 215 216 214 213 213 214 214 213 212 212 211 210 211 211 212 213 213 212 211 210 211 211 210 207 205 205
285 284 284 284 284 284 284 285 287 288 288 288 289 290 292 295 299 302 304 305 304 304 309 313 316 321 323 319 317 319 322 325 327 328 331 335 340 341 340 336 324 304 289 277 261 248 237 228 223 220 217 215 213 212 212 212 212 213 214 214 215 215 216 216 215 212 212 213 214 213 213 213 211 211 212 213 213 214 215 213 212 212 212 209 209 209 207 206
288 287 285 284 283 283 283 284 285 286 286 287 288 288 290 293 297 299 300 300 300 302 307 310 313 319 320 316 315 316 318 322 324 326 329 333 338 341 340 337 329 311 294 282 266 253 241 229 223 220 216 215 214 213 213 213 212 213 213 214 214 215 215 216 215 213 211 212 213 213 213 213 212 211 213 214 214 214 215 215 213 213 212 210 209 208 208 211
291 290 288 286 286 286 286 285 285 284 285 286 286 287 290 292 294 296 296 296 297 300 304 306 310 316 316 313 313 313 314 319 322 323 326 330 336 340 339 338 333 318 301 290 272 255 244 233 224 220 216 214 214 215 215 215 214 213 214 214 214 214 215 215 215 214 212 212 213 213 213 213 213 212 212 214 215 214 214 215 214 213 212 211 211 210 209 211
291 291 290 289 288 289 289 289 287 286 286 285 286 287 288 289 291 292 293 293 295 298 301 303 308 313 313 310 310 309 311 316 319 321 324 327 333 338 338 338 335 323 307 297 280 257 246 237 226 221 218 214 214 215 217 217 216 215 214 214 214 214 214 215 215 214 213 212 212 213 214 214 213 213 212 214 215 215 215 215 214 213 213 212 213 213 211 211
Height
10959 10959 10959 10959 10959 10959 10960 10960 10959 10959 10959 10959 10959 10959 10959 10959 10959 10960 10960 10960 10960 10961 10962 10962 10963 10963 10964 10965 10966 10967 10968 10969 10971 10973 10975 10977 10978 10979 10981 10983 10985 10986 10988 10990 10992 10993 10996 10998 11001 11003 11006 11008 11009 11010 11012 11014 11015 11016 11017 11018 11020 11021 11021 11021 11021 11021 11021 11021 11021 11021 11020 11020 11020 11020 11020 11020 11019 11018 11018 11016 11014 11013 11011 11009 11008 11006 11004 11001
10958 10958 10958 10958 10958 10958 10958 10958 10958 10958 10958 10958 10958 10957 10957 10957 10957 10957 10958 10958 10958 10958 10959 10959 10960 10960 10961 10961 10962 10963 10964 10965 10967 10969 10971 10973 10974 10975 10977 10979 10981 10983 10984 10987 10988 10990 10993 10995 10998 11001 11004 11006 11007 11009 11011 11013 11014 11015 11016 11017 11018 11020 11020 11020 11020 11020 11021 11020 11020 11019 11019 11019 11019 11020 11020 11021 11020 11019 11018 11017 11016 11014 11013 11011 11010 11008 11007 11004
10957 10957 10957 10957 10957 10957 10957 10957 10957 10956 10956 10956 10956 10956 10955 10955 10955 10955 10955 10955 10955 10956 10956 10956 10957 10957 10958 10958 10959 10959 10960 10961 10963 10964 10966 10968 10970 10972 10973 10975 10977 10979 10981 10982 10984 10986 10989 10993 10995 10998 11001 11004 11006 11007 11009 11010 11011 11013 11014 11016 11018 11019 11020 11019 11019 11019 11020 11019 11019 11019 11018 11018 11018 11019 11019 11020 11021 11020 11019 11019 11017 11016 11014 11013 11011 11010 11008 11006
10955 10955 10955 10955 10955 10955 10955 10955 10955 10954 10954 10954 10954 10954 10953 10953 10953 10953 10953 10953 10953 10953 10953 10953 10954 10954 10954 10955 10956 10956 10956 10958 10959 10959 10961 10963 10965 10967 10970 10971 10973 10974 10976 10978 10981 10983 10986 10989 10992 10995 10998 11001 11004 11005 11006 11007 11009 11011 11013 11015 11017 11018 11020 11019 11018 11019 11019 11019 11019 11020 11020 11019 11018 11018 11019 11020 11021 11021 11020 11020 11019 11017 11015 11014 11013 11011 11009 11008
10954 10954 10954 10954 10953 10953 10953 10952 10952 10952 10952 10952 10952 10951 10951 10951 10951 10951 10951 10951 10951 10951 10951 10951 10951 10951 10951 10952 10952 10952 10952 10953 10954 10955 10956 10959 10961 10964 10966 10967 10968 10970 10972 10974 10977 10980 10982 10986 10989 10992 10995 10999 11001 11002 11003 11004 11006 11008 11011 11014 11016 11017 11019 11019 11019 11018 11017 11017 11017 11018 11021 11019 11017 11018 11019 11021 11022 11021 11021 11021 11020 11018 11017 11015 11014 11013 11011 11009
10952 10952 10952 10951 10951 10951 10950 10950 10949 10949 10949 10949 10949 10949 10949 10948 10948 10948 10948 10948 10948 10948 10948 10948 10948 10948 10948 10948 10948 10948 10947 10948 10949 10950 10952 10955 10958 10960 10962 10963 10965 10966 10968 10970 10973 10975 10979 10982 10985 10988 10991 10995 10997 10998 11000 11002 11003 11005 11008 11012 11014 11016 11017 11018 11018 11016 11015 11017 11016 11016 11020 11020 11017 11018 11020 11021 11022 11022 11022 11021 11021 11020 11018 11017 11015 11014 11012 11010
10950 10950 10949 10949 10948 10948 10947 10947 10946 10946 10946 10946 10946 10945 10945 10945 10945 10945 10945 10945 10945 10945 10945 10945 10945 10945 10945 10945 10944 10943 10942 10943 10946 10947 10949 10952 10954 10957 10959 10960 10961 10962 10964 10967 10969 10971 10975 10978 10981 10984 10987 10990 10993 10995 10998 11001 11001 11002 11005 11009 11012 11014 11015 11016 11015 11015 11015 11017 11016 11015 11019 11020 11019 11020 11020 11021 11022 11022 11022 11022 11022 11021 11020 11018 11016 11015 11013 11012
10948 10947 10947 10946 10946 10945 10944 10944 10943 10943 10942 10942 10942 10942 10941 10941 10941 10941 10941 10941 10941 10941 10941 10941 10941 10941 10942 10941 10940 10938 10938 10939 10942 10945 10947 10949 10950 10953 10955 10956 10957 10958 10960 10962 10965 10967 10970 10974 10978 10981 10982 10986 10991 10993 10995 10998 10998 10999 11002 11006 11009 11012 11013 11014 11013 11013 11015 11016 11016 11016 11018 11019 11019 11020 11020 11021 11022 11023 11023 11023 11023 11022 11021 11019 11018 11016 11014 11013
10946 10945 10945 10944 10943 10942 10941 10941 10940 10939 10939 10938 10938 10938 10937 10937 10937 10937 10937 10937 10937 10937 10937 10937 10937 10937 10938 10937 10936 10935 10934 10936 10939 10942 10945 10945 10946 10948 10949 10951 10952 10954 10956 10958 10960 10963 10966 10970 10974 10976 10977 10983 10988 10988 10990 10993 10994 10996 10999 11003 11007 11009 11011 11012 11012 11012 11013 11015 11015 11015 11017 11018 11018 11019 11020 11021 11022 11023 11023 11024 11024 11023 11022 11021 11019 11017 11015 11014
10943 10943 10942 10941 10940 10939 10938 10938 10937 10936 10936 10935 10934 10934 10933 10933 10933 10933 10933 10933 10933 10933 10932 10933 10933 10933 10933 10933 10933 10932 10931 10933 10936 10938 10940 10940 10940 10941 10943 10945 10947 10949 10950 10953 10955 10957 10961 10966 10969 10971 10974 10980 10984 10982 10985 10989 10991 10993 10996 10999 11003 11006 11008 11010 11010 11010 11011 11013 11014 11014 11015 11017 11018 11018 11019 11021 11022 11023 11023 11024 11024 11024 11023 11022 11020 11018 11016 11014
10940 10940 10939 10938 10937 10936 10935 10935 10934 10933 10932 10931 10931 10930 10929 10929 10928 10928 10928 10928 10928 10928 10928 10928 10927 10928 10928 10928 10928 10928 10927 10931 10933 10933 10933 10934 10934 10935 10938 10940 10942 10944 10946 10948 10950 10953 10957 10960 10964 10966 10970 10976 10977 10977 10981 10985 10987 10989 10992 10996 11000 11002 11005 11007 11007 11008 11009 11010 11012 11013 11014 11016 11016 11017 11019 11020 11022 11023 11023 11024 11025 11024 11023 11023 11021 11019 11017 11015
10937 10937 10936 10935 10934 10933 10932 10931 10930 10929 10928 10928 10927 10926 10925 10924 10924 10924 10923 10923 10923 10923 10922 10922 10922 10923 10923 10923 10923 10923 10924 10926 10927 10928 10928 10928 10931 10931 10933 10936 10938 10940 10941 10944 10946 10949 10952 10955 10958 10961 10965 10970 10970 10973 10977 10981 10983 10985 10988 10992 10996 10999 11001 11003 11003 11005 11008 11008 11009 11011 11013 11015 11015 11016 11018 11019 11021 11022 11023 11024 11025 11025 11024 11023 11022 11020 11019 11017
10934 10933 10933 10932 10931 10930 10929 10928 10927 10926 10925 10924 10923 10922 10921 10920 10920 10919 10919 10918 10918 10917 10917 10917 10917 10917 10918 10918 10918 10919 10920 10921 10921 10923 10924 10924 10927 10928 10929 10931 10933 10935 10937 10939 10942 10945 10947 10950 10952 10954 10960 10963 10964 10969 10974 10977 10980 10982 10985 10988 10992 10995 10997 10999 11000 11002 11005 11007 11008 11009 11011 11013 11014 11015 11017 11018 11020 11022 11023 11024 11025 11025 11025 11024 11023 11022 11020 11018
10931 10930 10929 10928 10927 10926 10925 10924 10923 10922 10921 10920 10919 10918 10917 10916 10915 10915 10914 10913 10913 10912 10912 10912 10912 10912 10913 10913 10913 10914 10916 10916 10916 10917 10918 10920 10922 10924 10925 10926 10928 10931 10932 10935 10937 10939 10942 10944 10945 10948 10954 10957 10960 10966 10969 10972 10975 10977 10980 10984 10987 10991 10993 10995 10997 10999 11002 11004 11007 11008 11009 11011 11012 11014 11016 11017 11019 11021 11022 11023 11024 11025 11025 11024 11024 11023 11021 11020
10927 10926 10925 10924 10923 10922 10921 10920 10918 10917 10916 10915 10914 10913 10912 10911 10911 10910 10909 10908 10907 10907 10906 10906 10906 10906 10907 10907 10908 10909 10910 10911 10911 10912 10912 10914 10916 10918 10919 10920 10922 10925 10927 10930 10932 10934 10937 10938 10939 10942 10947 10953 10957 10961 10964 10967 10970 10973 10976 10980 10983 10987 10990 10992 10994 10996 10999 11002 11004 11006 11008 11010 11011 11012 11015 11017 11018 11020 11021 11023 11024 11024 11025 11025 11024 11023 11022 11021
10923 10922 10921 10920 10919 10918 10916 10915 10914 10913 10912 10911 10910 10909 10907 10907 10906 10904 10904 10903 10902 10901 10900 10900 10900 10900 10901 10901 10902 10903 10904 10905 10906 10906 10906 10907 10910 10912 10913 10915 10917 10919 10922 10924 10927 10930 10932 10932 10933 10936 10943 10949 10953 10956 10959 10962 10964 10969 10972 10975 10979 10982 10985 10988 10991 10993 10996 10999 11002 11004 11007 11008 11009 11011 11013 11015 11017 11018 11020 11022 11023 11024 11024 11024 11024 11024 11023 11022
10919 10918 10917 10916 10914 10913 10912 10911 10910 10908 10907 10906 10905 10904 10903 10902 10900 10899 10898 10897 10896 10895 10895 10894 10894 10894 10895 10895 10895 10896 10897 10898 10899 10900 10901 10901 10903 10906 10908 10910 10911 10913 10916 10919 10922 10925 10926 10927 10927 10931 10939 10945 10949 10951 10952 10954 10959 10964 10967 10970 10974 10977 10981 10985 10988 10991 10993 10996 10999 11002 11004 11006 11008 11009 11011 11014 11015 11017 11019 11020 11022 11023 11024 11024 11024 11024 11024 11023
10915 10914 10913 10911 10910 10909 10907 10906 10905 10904 10903 10901 10900 10899 10897 10896 10895 10894 10893 10892 10891 10890 10889 10888 10888 10888 10889 10889 10889 10890 10891 10892 10893 10894 10895 10895 10896 10899 10902 10904 10905 10907 10910 10913 10916 10918 10920 10922 10922 10927 10934 10939 10943 10943 10943 10948 10955 10959 10961 10964 10969 10973 10978 10981 10985 10987 10990 10993 10997 11000 11002 11004 11006 11008 11010 11012 11014 11016 11017 11019 11020 11021 11022 11023 11023 11023 11024 11023
10911 10909 10908 10907 10905 10904 10903 10902 10900 10899 10898 10896 10895 10893 10892 10891 10889 10888 10887 10886 10885 10884 10883 10882 10882 10881 10882 10883 10883 10883 10884 10886 10887 10887 10888 10889 10890 10892 10895 10897 10898 10900 10903 10906 10908 10912 10916 10917 10919 10923 10928 10931 10934 10933 10935 10944 10949 10951 10955 10960 10965 10970 10973 10977 10980 10983 10986 10990 10994 10997 11000 11002 11004 11006 11008 11010 11012 11014 11016 11017 11019 11020 11021 11022 11023 11023 11023 11024
10906 10905 10903 10902 10900 10899 10898 10897 10895 10894 10892 10891 10889 10887 10886 10885 10884 10882 10881 10880 10879 10878 10877 10877 10876 10876 10876 10877 10877 10877 10878 10879 10880 10881 10882 10883 10884 10885 10887 10890 10891 10893 10895 10897 10902 10907 10910 10913 10914 10918 10920 10922 10923 10926 10933 10940 10942 10944 10950 10955 10960 10965 10969 10973 10976 10979 10982 10987 10991 10995 10998 11002 11003 11003 11006 11008 11010 11012 11014 11016 11018 11019 11020 11021 11022 11023 11023 11024
10902 10900 10898 10897 10895 10894 10892 10891 10890 10888 10887 10885 10883 10881 10880 10879 10878 10877 10875 10874 10873 10872 10871 10871 10871 10871 10871 10871 10871 10871 10872 10873 10874 10875 10876 10876 10877 10878 10880 10882 10883 10886 10887 10890 10896 10900 10903 10907 10909 10910 10913 10914 10915 10921 10929 10932 10934 10940 10945 10950 10955 10959 10963 10967 10971 10976 10979 10983 10988 10992 10997 11000 10998 10999 11003 11005 11006 11009 11012 11014 11016 11017 11019 11020 11021 11022 11023 11023
10897 10895 10893 10891 10890 10888 10887 10886 10884 10883 10881 10879 10877 10875 10874 10872 10871 10870 10869 10869 10868 10867 10866 10865 10866 10866 10866 10865 10865 10865 10865 10867 10868 10868 10869 10870 10870 10871 10872 10874 10875 10878 10880 10883 10888 10892 10895 10899 10900 10902 10905 10906 10908 10916 10922 10924 10928 10936 10941 10945 10951 10955 10958 10963 10968 10972 10975 10979 10984 10989 10994 10994 10993 10996 11000 11001 11004 11007 11010 11012 11014 11015 11017 11018 11020 11021 11022 11023
10892 10890 10888 10886 10884 10883 10882 10880 10878 10877 10875 10873 10871 10870 10868 10866 10865 10864 10863 10863 10863 10862 10860 10860 10860 10860 10860 10860 10860 10859 10858 10860 10861 10862 10862 10862 10863 10864 10864 10865 10866 10868 10871 10875 10879 10883 10886 10889 10890 10893 10896 10897 10901 10909 10914 10917 10923 10931 10936 10940 10945 10950 10954 10959 10964 10967 10970 10975 10980 10985 10989 10991 10992 10995 10997 10999 11002 11005 11007 11010 11012 11014 11015 11017 11018 11020 11021 11022
10887 10885 10883 10881 10879 10878 10876 10874 10872 10870 10869 10867 10865 10864 10862 10861 10859 10859 10858 10857 10856 10856 10855 10855 10855 10855 10854 10854 10854 10853 10852 10853 10854 10854 10854 10854 10855 10855 10855 10855 10856 10858 10861 10864 10869 10872 10874 10878 10882 10885 10889 10891 10894 10901 10907 10910 10917 10924 10929 10934 10938 10943 10948 10953 10958 10961 10966 10970 10975 10980 10984 10987 10988 10991 10994 10997 11000 11002 11005 11007 11010 11012 11013 11015 11017 11018 11020 11021
10881 10879 10877 10875 10874 10872 10870 10868 10866 10865 10863 10861 10860 10858 10857 10856 10854 10853 10852 10851 10850 10851 10850 10849 10850 10850 10849 10848 10848 10847 10846 10846 10846 10846 10845 10844 10844 10844 10844 10844 10845 10847 10849 10854 10858 10861 10865 10871 10874 10877 10881 10884 10888 10895 10900 10903 10909 10917 10924 10929 10931 10935 10941 10947 10952 10956 10961 10965 10970 10975 10979 10982 10984 10987 10991 10995 10997 11000 11002 11005 11007 11009 11012 11013 11015 11016 11018 11020
10876 10874 10872 10870 10868 10866 10864 10862 10860 10859 10857 10856 10854 10853 10852 10851 10850 10848 10847 10846 10845 10845 10846 10844 10844 10844 10843 10843 10842 10841 10839 10839 10838 10837 10835 10833 10832 10831 10831 10831 10833 10835 10838 10843 10847 10850 10856 10861 10864 10868 10873 10877 10881 10888 10893 10896 10903 10912 10919 10922 10924 10927 10934 10940 10945 10950 10955 10960 10965 10970 10974 10978 10981 10984 10988 10991 10995 10997 10999 11002 11004 11007 11009 11011 11013 11015 11016 11018
10870 10868 10866 10864 10863 10861 10858 10856 10854 10853 10852 10850 10849 10848 10847 10846 10845 10844 10843 10842 10840 10840 10841 10840 10838 10837 10837 10837 10836 10834 10832 10831 10829 10827 10824 10821 10820 10819 10818 10818 10820 10822 10825 10829 10832 10835 10841 10846 10852 10859 10864 10869 10875 10881 10887 10893 10899 10905 10910 10915 10918 10922 10928 10934 10938 10944 10950 10955 10961 10966 10970 10974 10977 10981 10984 10988 10991 10994 10996 10999 11002 11004 11006 11008 11011 11013 11015 11016
10865 10862 10861 10859 10857 10855 10853 10851 10849 10848 10846 10846 10845 10844 10843 10842 10841 10840 10839 10839 10837 10836 10836 10836 10834 10832 10831 10830 10829 10826 10824 10822 10820 10816 10812 10810 10808 10806 10804 10804 10805 10807 10809 10812 10816 10820 10825 10832 10841 10848 10854 10861 10868 10874 10882 10888 10892 10896 10903 10910 10913 10915 10919 10926 10932 10939 10946 10951 10956 10962 10966 10969 10973 10977 10981 10984 10987 10990 10993 10996 10999 11001 11004 11006 11009 11011 11013 11015
10859 10857 10856 10854 10852 10849 10847 10845 10844 10843 10842 10841 10840 10839 10838 10837 10836 10836 10836 10835 10834 10832 10832 10831 10829 10827 10825 10823 10821 10818 10815 10813 10810 10805 10801 10798 10796 10793 10790 10789 10789 10790 10791 10794 10798 10802 10809 10820 10832 10840 10847 10854 10858 10864 10873 10880 10883 10888 10897 10903 10905 10907 10912 10919 10927 10935 10941 10946 10952 10957 10960 10964 10969 10973 10977 10980 10983 10987 10990 10993 10996 10998 11001 11003 11006 11008 11011 11012
10854 10852 10850 10848 10846 10844 10842 10840 10839 10838 10837 10837 10836 10835 10834 10833 10832 10832 10832 10831 10830 10828 10827 10826 10824 10821 10818 10816 10813 10809 10806 10804 10799 10795 10791 10787 10784 10781 10777 10776 10776 10776 10776 10778 10783 10790 10798 10810 10820 10829 10837 10843 10849 10855 10865 10871 10873 10879 10889 10894 10897 10899 10905 10913 10922 10930 10934 10940 10946 10950 10953 10958 10964 10969 10972 10976 10980 10983 10986 10989 10992 10995 10998 11001 11003 11006 11008 11010
10848 10846 10845 10843 10841 10839 10837 10836 10834 10834 10833 10832 10831 10831 10830 10829 10828 10828 10828 10827 10826 10825 10822 10820 10818 10815 10811 10809 10805 10801 10797 10793 10789 10785 10781 10777 10773 10770 10767 10765 10765 10765 10764 10767 10774 10780 10788 10798 10807 10817 10826 10833 10839 10847 10857 10863 10866 10873 10882 10887 10890 10894 10901 10910 10918 10925 10930 10934 10938 10942 10948 10954 10959 10963 10967 10971 10975 10979 10982 10986 10989 10992 10995 10997 11000 11003 11005 11007
10843 10841 10840 10838 10836 10834 10833 10831 10830 10830 10829 10828 10827 10827 10826 10826 10824 10823 10823 10822 10821 10819 10818 10815 10813 10810 10806 10803 10799 10794 10790 10784 10780 10777 10773 10768 10764 10761 10758 10756 10756 10756 10756 10760 10766 10770 10777 10790 10801 10810 10817 10822 10829 10838 10849 10855 10860 10867 10874 10879 10883 10889 10898 10905 10912 10920 10923 10925 10929 10935 10942 10947 10952 10957 10963 10967 10971 10975 10979 10983 10986 10989 10991 10994 10997 11000 11002 11004
10838 10836 10835 10833 10831 10830 10829 10828 10827 10826 10825 10824 10824 10823 10822 10822 10821 10819 10819 10818 10816 10814 10812 10810 10807 10804 10800 10796 10792 10788 10783 10778 10773 10769 10765 10761 10757 10754 10751 10749 10749 10749 10750 10754 10758 10761 10769 10780 10790 10798 10804 10809 10819 10831 10839 10843 10850 10858 10864 10869 10875 10882 10890 10897 10905 10912 10913 10915 10922 10931 10938 10941 10945 10953 10959 10963 10967 10971 10975 10979 10982 10985 10988 10991 10994 10996 10999 11002
10833 10832 10830 10829 10827 10826 10825 10824 10823 10822 10822 10821 10820 10820 10819 10818 10818 10817 10814 10814 10812 10809 10807 10804 10801 10798 10793 10789 10786 10782 10777 10773 10768 10763 10759 10755 10751 10748 10746 10744 10743 10743 10745 10749 10751 10756 10763 10771 10779 10786 10790 10798 10809 10818 10824 10830 10840 10849 10855 10860 10866 10874 10881 10888 10896 10901 10903 10909 10918 10928 10933 10936 10941 10949 10954 10958 10963 10967 10971 10975 10979 10982 10984 10988 10990 10993 10996 10999
10829 10828 10826 10825 10824 10822 10821 10821 10820 10819 10818 10818 10817 10816 10816 10814 10814 10813 10811 10809 10807 10804 10802 10798 10795 10793 10788 10783 10779 10776 10771 10768 10763 10758 10754 10750 10746 10744 10741 10740 10739 10739 10741 10743 10745 10750 10757 10764 10772 10778 10783 10794 10804 10809 10816 10824 10832 10839 10845 10851 10859 10867 10873 10880 10887 10893 10900 10907 10914 10922 10927 10929 10934 10943 10948 10953 10958 10962 10966 10970 10975 10978 10981 10984 10987 10990 10993 10995
10825 10824 10823 10822 10820 10819 10818 10818 10817 10816 10815 10815 10814 10813 10812 10811 10809 10808 10806 10804 10802 10800 10797 10794 10790 10787 10784 10779 10774 10770 10766 10762 10758 10754 10750 10745 10742 10740 10738 10736 10735 10736 10737 10738 10740 10745 10749 10756 10762 10767 10775 10785 10794 10801 10811 10818 10824 10830 10836 10842 10849 10856 10862 10868 10877 10887 10895 10899 10905 10915 10919 10920 10927 10936 10942 10947 10952 10957 10961 10966 10971 10974 10978 10981 10983 10986 10989 10991
10822 10820 10819 10818 10817 10816 10815 10815 10814 10813 10812 10811 10811 10809 10808 10807 10805 10803 10801 10799 10797 10795 10792 10789 10785 10782 10779 10775 10771 10767 10762 10758 10754 10750 10746 10742 10739 10737 10734 10732 10732 10732 10732 10733 10736 10739 10744 10749 10754 10760 10767 10776 10785 10794 10802 10807 10813 10820 10827 10835 10841 10847 10855 10863 10873 10882 10885 10888 10897 10906 10909 10913 10921 10930 10936 10942 10947 10952 10957 10962 10968 10972 10975 10978 10979 10982 10986 10989
10818 10817 10816 10815 10814 10813 10812 10812 10811 10810 10809 10808 10808 10807 10804 10802 10800 10799 10796 10794 10793 10790 10787 10784 10781 10778 10774 10771 10768 10764 10759 10755 10750 10747 10743 10739 10736 10733 10730 10729 10729 10729 10729 10730 10732 10734 10737 10742 10748 10756 10762 10769 10779 10788 10795 10800 10805 10813 10823 10831 10837 10843 10852 10861 10868 10873 10875 10879 10889 10897 10903 10908 10916 10923 10929 10934 10940 10947 10953 10959 10965 10970 10973 10975 10976 10979 10983 10986
10815 10814 10813 10812 10811 10810 10809 10809 10808 10807 10806 10805 10804 10804 10802 10799 10796 10795 10793 10790 10788 10786 10783 10780 10777 10774 10771 10768 10765 10761 10756 10752 10747 10744 10741 10736 10733 10730 10727 10726 10727 10727 10727 10728 10728 10730 10733 10737 10743 10750 10754 10760 10772 10782 10790 10796 10802 10812 10822 10827 10832 10839 10849 10855 10859 10863 10868 10873 10880 10889 10895 10900 10906 10913 10918 10926 10935 10943 10949 10956 10962 10966 10970 10973 10974 10977 10981 10984
10811 10811 10809 10808 10808 10807 10806 10806 10805 10804 10803 10802 10801 10800 10799 10796 10793 10791 10789 10786 10784 10782 10779 10776 10773 10769 10767 10764 10762 10759 10755 10750 10745 10740 10737 10734 10730 10727 10725 10724 10724 10725 10725 10724 10725 10727 10731 10734 10739 10743 10745 10751 10763 10774 10783 10790 10798 10808 10815 10818 10824 10832 10838 10844 10848 10853 10859 10865 10873 10882 10887 10890 10897 10904 10912 10922 10933 10940 10946 10951 10957 10962 10966 10969 10971 10974 10978 10982
10807 10807 10806 10805 10804 10804 10803 10802 10801 10800 10799 10798 10797 10795 10794 10793 10790 10787 10786 10782 10780 10778 10774 10772 10769 10765 10762 10760 10758 10755 10752 10748 10744 10738 10734 10731 10728 10725 10723 10721 10721 10721 10720 10719 10720 10722 10726 10730 10733 10736 10738 10745 10755 10765 10773 10779 10789 10798 10804 10810 10817 10822 10827 10833 10837 10843 10850 10858 10866 10874 10880 10884 10890 10897 10906 10918 10928 10935 10941 10947 10953 10958 10962 10966 10968 10970 10975 10979
10803 10803 10803 10802 10802 10801 10800 10799 10798 10797 10796 10795 10794 10791 10790 10789 10786 10784 10782 10778 10775 10774 10771 10768 10766 10763 10759 10757 10754 10751 10748 10745 10742 10737 10733 10729 10726 10723 10720 10718 10718 10718 10716 10715 10716 10718 10721 10724 10727 10730 10734 10739 10747 10756 10762 10770 10779 10786 10792 10800 10807 10811 10817 10824 10829 10835 10842 10850 10856 10863 10870 10878 10885 10894 10903 10913 10922 10929 10935 10942 10949 10954 10958 10963 10965 10966 10970 10973
10800 10799 10799 10799 10798 10797 10797 10796 10794 10793 10792 10790 10790 10788 10786 10785 10783 10780 10779 10775 10771 10770 10768 10765 10762 10759 10756 10753 10750 10747 10745 10742 10739 10735 10731 10727 10723 10720 10718 10715 10714 10713 10712 10712 10713 10715 10717 10720 10723 10726 10729 10733 10739 10746 10753 10763 10771 10775 10779 10786 10790 10794 10803 10815 10824 10830 10836 10842 10848 10856 10865 10873 10881 10890 10899 10910 10919 10926 10933 10940 10946 10950 10956 10962 10964 10965 10968 10972
10797 10796 10795 10794 10794 10793 10793 10792 10791 10790 10788 10786 10785 10784 10782 10781 10779 10777 10775 10772 10768 10766 10764 10761 10758 10755 10752 10749 10747 10744 10741 10738 10736 10733 10729 10725 10721 10718 10715 10712 10710 10710 10710 10709 10711 10713 10715 10716 10719 10721 10724 10728 10733 10738 10746 10754 10761 10764 10768 10772 10775 10784 10801 10814 10820 10826 10833 10839 10847 10858 10867 10872 10878 10888 10901 10913 10921 10926 10932 10937 10941 10947 10954 10962 10967 10968 10970 10975
10795 10793 10791 10790 10789 10789 10789 10788 10786 10786 10784 10782 10781 10780 10778 10776 10774 10773 10771 10768 10764 10763 10761 10757 10755 10752 10749 10746 10743 10741 10738 10735 10733 10730 10726 10723 10719 10716 10713 10709 10707 10707 10706 10706 10707 10710 10712 10713 10714 10716 10719 10722 10726 10731 10738 10745 10749 10753 10759 10763 10771 10786 10800 10805 10808 10817 10828 10839 10850 10861 10868 10872 10879 10891 10902 10910 10914 10917 10922 10927 10932 10940 10949 10958 10965 10968 10970 10976
10793 10790 10787 10785 10786 10786 10784 10782 10781 10781 10780 10778 10777 10776 10774 10772 10770 10769 10767 10763 10760 10759 10757 10754 10751 10748 10745 10742 10740 10737 10734 10731 10729 10727 10723 10720 10716 10713 10710 10707 10704 10704 10703 10702 10703 10705 10707 10708 10710 10712 10715 10717 10721 10724 10730 10736 10740 10745 10751 10757 10768 10781 10789 10792 10801 10815 10828 10838 10849 10858 10866 10872 10881 10891 10898 10901 10902 10905 10910 10916 10925 10935 10944 10951 10959 10964 10968 10972
10789 10787 10783 10781 10783 10782 10779 10777 10776 10776 10776 10774 10772 10770 10769 10769 10767 10764 10763 10759 10756 10754 10753 10751 10748 10744 10741 10738 10736 10734 10731 10728 10725 10722 10720 10717 10713 10709 10707 10703 10701 10700 10699 10698 10698 10699 10700 10701 10704 10708 10710 10713 10717 10719 10724 10730 10734 10738 10745 10751 10761 10772 10779 10786 10798 10812 10824 10833 10841 10850 10860 10868 10876 10885 10892 10895 10896 10898 10901 10908 10918 10931 10940 10948 10954 10959 10962 10964
10784 10783 10779 10777 10778 10776 10774 10772 10771 10771 10771 10769 10767 10764 10763 10764 10763 10760 10758 10754 10751 10750 10748 10746 10744 10741 10738 10735 10732 10731 10729 10726 10722 10719 10716 10714 10710 10707 10703 10700 10698 10697 10695 10694 10693 10693 10695 10697 10699 10702 10705 10708 10710 10713 10718 10723 10726 10730 10738 10746 10755 10766 10774 10782 10794 10807 10818 10826 10833 10842 10852 10860 10868 10876 10881 10884 10886 10889 10894 10902 10912 10923 10932 10939 10943 10944 10948 10954
10777 10777 10775 10772 10771 10771 10769 10767 10766 10766 10765 10764 10762 10759 10757 10758 10758 10757 10754 10750 10747 10745 10744 10741 10739 10737 10735 10731 10728 10726 10724 10722 10720 10717 10713 10710 10707 10704 10700 10697 10694 10693 10691 10690 10688 10689 10691 10693 10695 10697 10701 10704 10705 10707 10710 10713 10717 10723 10731 10740 10750 10760 10769 10778 10789 10801 10811 10817 10825 10835 10843 10850 10859 10867 10871 10874 10877 10882 10889 10896 10904 10913 10921 10927 10929 10932 10939 10945
10770 10770 10769 10766 10765 10765 10764 10763 10762 10761 10760 10759 10757 10754 10752 10751 10753 10752 10750 10746 10742 10740 10739 10736 10734 10733 10730 10727 10725 10723 10720 10718 10716 10713 10710 10707 10704 10701 10697 10694 10690 10688 10687 10685 10684 10685 10686 10688 10689 10692 10696 10698 10699 10700 10700 10703 10709 10716 10724 10734 10744 10754 10763 10772 10782 10793 10802 10808 10816 10825 10832 10839 10848 10856 10861 10864 10869 10875 10881 10887 10895 10903 10910 10916 10920 10923 10928 10931
10764 10763 10762 10760 10758 10758 10758 10757 10756 10755 10754 10753 10752 10750 10747 10745 10746 10746 10744 10742 10739 10736 10734 10731 10729 10729 10726 10723 10722 10719 10716 10715 10713 10710 10707 10704 10701 10699 10695 10691 10688 10685 10683 10681 10680 10681 10681 10682 10684 10687 10689 10691 10693 10694 10694 10698 10705 10711 10718 10727 10736 10746 10755 10764 10774 10785 10794 10802 10808 10815 10821 10829 10837 10843 10849 10853 10859 10866 10872 10879 10888 10896 10902 10907 10910 10913 10917 10919
10759 10757 10756 10754 10752 10752 10752 10751 10749 10748 10748 10746 10745 10746 10743 10740 10740 10740 10737 10735 10734 10732 10730 10727 10725 10724 10721 10719 10718 10716 10712 10711 10709 10707 10704 10701 10698 10696 10693 10689 10685 10682 10679 10677 10676 10676 10677 10677 10679 10681 10682 10684 10687 10689 10691 10696 10701 10706 10713 10721 10730 10739 10748 10757 10767 10778 10787 10795 10801 10806 10813 10819 10824 10830 10836 10841 10848 10856 10863 10869 10878 10886 10894 10898 10900 10902 10906 10909